Find Starlink 11630

NORAD ID: 63111 Int'l Des: 2025-039 Owner: SPXS Country: US Constellation: starlink operational
LEOCIRCULAR

当前视图

正在加载3D地球...

About Starlink 11630

Starlink 11630 (NORAD 63111) is a starlink constellation satellite (v2 mini d2c) launched Feb 27, 2025 by SPXS of US. It operates in LEO, CIRCULAR orbit with a mass of 960.00 kg.

关于 Starlink 11630

正在加载描述...

即将过境

Passes for default location (London). Set your location on the main map for personalized predictions.

高度历史

Loading altitude history...

两行轨道根数

1 63111U 25039H 26170.17747170 .00159131 00000-0 12190-2 0 9996
2 63111 42.9997 345.3984 0001920 286.4261 73.6395 15.70860864 75573
Epoch: Jun 19, 2026 • Age: 7 hours

当前状态

高度 366.4 km
速度 7.69 km/s
星下点 -38.75°S, 157.16°W
发射日期 Feb 27, 2025
运行时间 1.3 years
类型 internet

技术详情

分类 Payload
质量 960.00 kg
干质量 910.00 kg
总质量 960.00 kg
长度 0.30 m
直径 4.10 m
跨度 29.00 m
形状 Box + pan
制造商 SPXS
平台类型 Starlink V2MD
阶段状态 In Orbit
所有者/国家 SPXS/US

Most Searched